[[{"header":{"parameterUnit":"m.s-1","parameterCategory":1,"la1":30.2991,"la2":30.254,"lo1":-89.0895,"lo2":-89.0444,"dy":0.0017,"dx":0.0017,"nx":28,"ny":28,"refTime":"2025-03-18T09:00:00:Z","depth":0,"parameterNumber":2,"parameterNumberName":"U-component_of_WINDS"},"data":[0,0,0,0,0,0,0,0,0,0,0,0,0,0,0,0,0,0,0,0,0,0,0,0,0,0,0,0,0,0,0,0,0,0,0,0,0,0,0,0,0,0,0,0,0,0,0,0,0,0,0,0,0,0,0,0,0,0,3.1139,3.1139,0,3.1115,3.1115,3.1114,3.1035,3.1033,3.1031,3.103,3.1008,3.1009,3.101,0,0,0,0,0,0,0,0,0,0,0,0,0,3.1121,3.1122,3.1139,3.1139,3.1139,3.1115,3.1114,3.1114,3.1035,3.1033,3.1031,3.1029,3.1008,3.1009,3.101,0,0,0,0,0,0,0,0,0,0,0,0,0,3.1116,3.1122,3.1139,3.1096,3.1092,3.1115,3.1114,3.1114,3.1036,3.1033,3.103,3.1028,3.1007,3.1009,3.1011,3.1074,0,0,3.1016,3.1016,0,0,0,0,0,0,0,0,3.1116,3.1117,3.1103,3.1099,3.1095,3.1075,3.11,3.1101,3.1036,3.1057,3.103,3.1027,3.1033,3.1032,3.1034,3.1073,3.1072,3.1016,3.1017,3.1017,3.1018,0,0,0,0,0,0,0,3.1117,3.1117,3.113,3.1103,3.1098,3.1079,3.1076,3.11,3.1061,3.1055,3.105,3.1048,3.103,3.1032,3.1033,3.1072,3.1016,3.1017,3.1018,3.1019,3.1162,3.1164,0,0,0,0,0,0,3.1123,3.1118,3.113,3.1129,3.1099,3.1082,3.1078,3.1084,3.106,3.1054,3.105,3.1044,3.1031,3.1031,3.1032,3.1104,3.1017,3.1019,3.102,3.1159,3.1162,3.1165,0,0,0,0,0,0,3.1123,3.1125,3.1131,3.1122,3.1121,3.1085,3.1093,3.1085,3.1087,3.1056,3.1049,3.1059,3.1029,3.1029,3.1064,3.1102,3.102,3.1021,3.1156,3.116,3.1164,3.1249,0,0,0,0,0,0,3.1123,3.1125,3.1148,3.1123,3.1122,3.1163,3.1095,3.1087,3.109,3.1082,3.1062,3.1057,3.1027,3.1062,3.1065,3.1103,3.1022,3.1152,3.1158,3.1163,3.1243,3.1256,3.1267,0,0,0,0,0,3.1122,3.1174,3.115,3.1152,3.115,3.1166,3.1165,3.1129,3.1093,3.1116,3.1096,3.1057,3.1097,3.1066,3.1069,3.1108,3.1149,3.1156,3.1162,3.1237,3.1253,3.1267,0,0,0,0,0,0,3.1205,3.117,3.1142,3.1187,3.118,3.1152,3.118,3.1147,3.115,3.1143,3.1098,3.1095,3.1136,3.1125,3.1091,3.1168,3.1117,3.1124,3.1173,3.1188,3.12,3.1201,3.1024,0,0,0,0,0,3.1229,3.1244,3.1212,3.1255,3.1252,3.1217,3.1223,3.1195,3.1186,3.1183,3.1165,3.1159,3.117,3.1178,3.1187,3.1241,3.1236,3.1269,3.1281,3.1291,3.1298,3.1326,3.1341,3.1186,3.1186,3.1186,0,0,3.1278,3.126,3.1272,3.1271,3.1262,3.1279,3.1215,3.1236,3.1249,3.1186,3.1217,3.1205,3.1195,3.1239,3.1258,3.1232,3.134,3.13,3.1308,3.1309,3.1334,3.1349,3.1362,3.1191,3.119,3.1189,0,0,3.1375,3.1363,3.1397,3.1389,3.1376,3.1353,3.1361,3.1338,3.1327,3.1357,3.1311,3.1326,3.1346,3.1341,3.1341,3.1437,3.1401,3.1441,3.1504,3.1532,3.1544,3.1555,3.1589,3.1602,3.1448,3.1448,3.1448,0,3.1438,3.1461,3.1419,3.1443,3.1444,3.1388,3.1422,3.1417,3.1408,3.1411,3.1381,3.1405,3.1394,3.1437,3.146,3.1462,3.1471,3.1443,3.1545,3.1556,3.1565,3.1597,3.161,3.1453,3.1452,3.1452,3.1451,0,3.1538,3.1555,3.1584,3.1576,3.158,3.161,3.1574,3.1583,3.1556,3.1535,3.1567,3.1553,3.1557,3.1565,3.1539,3.1604,3.1589,3.1553,3.1501,3.1585,3.1615,3.1627,3.146,3.1458,3.1457,3.1455,0,0,3.1688,3.1655,3.1667,3.1662,3.1644,3.1656,3.1684,3.1687,3.1696,3.1692,3.1714,3.1732,3.1699,3.1699,3.1672,3.1696,3.1773,3.1657,3.1657,3.168,3.1845,3.1872,3.1887,3.175,3.1752,3.1754,3.1846,0,3.178,3.1823,3.1787,3.1837,3.1852,3.1799,3.1823,3.1815,3.1797,3.1808,3.1788,3.1802,3.1757,3.1757,3.1779,3.1759,3.1806,3.1752,3.1771,3.1772,3.1775,3.1902,3.1931,3.2018,3.1857,3.1859,3.1861,0,3.1893,3.1893,3.1945,3.1923,3.1928,3.195,3.195,3.1961,3.1951,3.1936,3.1936,3.1902,3.1928,3.1877,3.1913,3.1877,3.1883,3.1875,3.1877,3.1877,3.1821,3.1906,3.2045,3.2059,3.1878,3.1877,3.1876,0,3.1997,3.201,3.2042,3.204,3.2015,3.2032,3.2022,3.201,3.2014,3.2015,3.2017,3.2021,3.2024,3.2028,3.1997,3.1962,3.2037,3.1983,3.2026,3.2027,3.2044,3.2043,3.2186,3.2048,3.2047,3.2047,3.2047,0,3.2104,3.2137,3.2088,3.2108,3.2145,3.2103,3.2141,3.2126,3.2115,3.2132,3.2087,3.2104,3.2061,3.2074,3.205,3.2083,3.2085,3.2074,3.2067,3.2078,3.208,3.2081,3.2074,3.2051,3.205,3.2049,3.2049,0,3.2225,3.2194,3.2225,3.2199,3.2193,3.2222,3.22,3.2218,3.2197,3.2219,3.2222,3.2189,3.2202,3.2171,3.218,3.2163,3.2211,3.2195,3.2214,3.2209,3.2254,3.225,3.2403,3.2421,3.2271,3.2273,3.2274,0,3.2295,3.232,3.2296,3.2304,3.2297,3.231,3.2313,3.2274,3.228,3.2271,3.229,3.2299,3.2304,3.2328,3.2306,3.2312,3.2295,3.2348,3.2296,3.2306,3.2296,3.2295,3.2298,3.2359,3.2361,3.2363,3.2364,0,3.2423,3.2406,3.2413,3.2415,3.242,3.242,3.2417,3.2426,3.2384,3.2393,3.2405,3.2409,3.2418,3.2427,3.2429,3.242,3.2386,3.238,3.2391,3.2402,3.2412,3.2407,3.2244,3.2377,3.2376,3.2375,3.2374,3.2374,3.2521,3.2541,3.2527,3.2536,3.2529,3.2527,3.2542,3.2523,3.2532,3.2535,3.2512,3.2529,3.2519,3.2517,3.2512,3.2526,3.2502,3.2517,3.2521,3.2525,3.2532,3.241,3.2526,3.2526,3.2525,3.2525,3.2525,0,3.2647,3.2635,3.2644,3.264,3.2648,3.2613,3.2608,3.2617,3.2632,3.2625,3.2631,3.2645,3.2654,3.2633,3.2639,3.2654,3.2639,3.2657,3.2656,3.2654,3.2553,3.2544,3.267,3.267,3.267,3.267,3.267,3.267,3.2713,3.2744,3.2725,3.2753,3.2741,3.2757,3.2757,3.2755,3.2749,3.2766,3.2773,3.2759,3.2747,3.2752,3.2759,3.2752,3.2757,3.2781,3.277,3.2676,3.2662,3.2648,3.2639,3.2783,3.2783,3.2869,3.287,3.2871]},{"header":{"parameterUnit":"m.s-1","parameterCategory":1,"la1":30.2991,"la2":30.254,"lo1":-89.0895,"lo2":-89.0444,"dy":0.0017,"dx":0.0017,"nx":28,"ny":28,"refTime":"2025-03-18T09:00:00:Z","depth":0,"parameterNumber":3,"parameterNumberName":"V-component_of_WINDS"},"data":[0,0,0,0,0,0,0,0,0,0,0,0,0,0,0,0,0,0,0,0,0,0,0,0,0,0,0,0,0,0,0,0,0,0,0,0,0,0,0,0,0,0,0,0,0,0,0,0,0,0,0,0,0,0,0,0,0,0,5.1845,5.1847,0,5.1997,5.1999,5.2001,5.1997,5.1995,5.1993,5.1991,5.2141,5.2147,5.2153,0,0,0,0,0,0,0,0,0,0,0,0,0,5.1546,5.1551,5.1845,5.1847,5.1849,5.1997,5.1999,5.2001,5.1997,5.1995,5.1992,5.199,5.2139,5.2146,5.2154,0,0,0,0,0,0,0,0,0,0,0,0,0,5.1684,5.1553,5.1845,5.1865,5.1868,5.1997,5.1999,5.2002,5.1998,5.1995,5.1992,5.1989,5.2137,5.2146,5.2155,5.2271,0,0,5.2182,5.2185,0,0,0,0,0,0,0,0,5.1677,5.1695,5.186,5.1864,5.1868,5.1975,5.1949,5.2092,5.1999,5.1949,5.1991,5.1987,5.2088,5.2101,5.2136,5.2278,5.2284,5.2182,5.2188,5.2192,5.2194,0,0,0,0,0,0,0,5.1667,5.1689,5.1905,5.1862,5.1867,5.1865,5.1881,5.1976,5.2034,5.1953,5.1953,5.1971,5.209,5.2128,5.214,5.2287,5.2182,5.219,5.2196,5.2199,5.2531,5.2534,0,0,0,0,0,0,5.1654,5.1681,5.19,5.191,5.1763,5.1873,5.1891,5.1944,5.2033,5.2043,5.1974,5.1971,5.2114,5.2129,5.2145,5.2287,5.2192,5.22,5.2205,5.2527,5.2531,5.2535,0,0,0,0,0,0,5.1647,5.1674,5.1894,5.1795,5.1823,5.1881,5.194,5.1948,5.1986,5.2049,5.2058,5.2002,5.2112,5.2132,5.224,5.2292,5.2204,5.2212,5.2523,5.2528,5.2533,5.2571,0,0,0,0,0,0,5.1639,5.1671,5.1717,5.1797,5.1829,5.1988,5.1944,5.1954,5.2002,5.2,5.2078,5.2088,5.2111,5.2227,5.2249,5.2302,5.2219,5.2519,5.2525,5.2532,5.2566,5.2577,5.2587,0,0,0,0,0,5.1628,5.1721,5.172,5.1746,5.1888,5.1992,5.201,5.2036,5.2006,5.2053,5.2092,5.2085,5.2283,5.2238,5.2262,5.232,5.2515,5.2523,5.2531,5.2561,5.2575,5.2587,0,0,0,0,0,0,5.1645,5.1732,5.1731,5.1853,5.1915,5.1991,5.205,5.205,5.2121,5.2115,5.2143,5.2161,5.2269,5.2305,5.2253,5.2436,5.2395,5.2408,5.2409,5.2423,5.2434,5.2423,5.2226,0,0,0,0,0,5.1663,5.1742,5.1813,5.1913,5.1944,5.1992,5.2038,5.2053,5.2118,5.2143,5.2191,5.2253,5.2328,5.2378,5.2451,5.2571,5.2587,5.2622,5.2633,5.2641,5.2652,5.2718,5.2734,5.2561,5.2561,5.2561,0,0,5.17,5.1758,5.1805,5.1918,5.1968,5.2047,5.2014,5.2099,5.2157,5.2156,5.2261,5.2298,5.2368,5.2482,5.2535,5.2516,5.2704,5.2651,5.2658,5.2664,5.2728,5.2744,5.2758,5.2566,5.2565,5.2564,0,0,5.1809,5.1861,5.195,5.2001,5.2078,5.2109,5.213,5.2206,5.2231,5.2337,5.2338,5.2406,5.2537,5.2587,5.2629,5.2757,5.2753,5.278,5.2836,5.2899,5.2913,5.2925,5.297,5.2986,5.279,5.279,5.2791,0,5.1846,5.1967,5.1995,5.2082,5.2131,5.2135,5.2224,5.2271,5.2367,5.24,5.2377,5.2541,5.2588,5.2714,5.2745,5.278,5.2804,5.2771,5.2909,5.2921,5.2933,5.2976,5.2993,5.2793,5.2793,5.2793,5.2792,0,5.2008,5.2092,5.2154,5.2249,5.2305,5.2392,5.2432,5.2485,5.2495,5.2527,5.2634,5.2692,5.2777,5.2807,5.2817,5.2934,5.292,5.2903,5.2862,5.2952,5.2993,5.301,5.2797,5.2796,5.2795,5.2795,0,0,5.2132,5.2241,5.2264,5.2307,5.2391,5.2456,5.2542,5.2627,5.2672,5.2737,5.281,5.292,5.2904,5.2952,5.2968,5.3024,5.3121,5.3,5.3002,5.302,5.3252,5.3265,5.3284,5.3118,5.3121,5.3124,5.3246,0,5.2249,5.2406,5.2434,5.257,5.2647,5.2652,5.2727,5.2786,5.2818,5.2887,5.2922,5.3,5.2974,5.3003,5.3058,5.3097,5.3167,5.3089,5.3184,5.3188,5.3167,5.3305,5.3319,5.3432,5.3263,5.3265,5.3267,0,5.2408,5.248,5.2624,5.2698,5.2732,5.2799,5.2879,5.2945,5.3011,5.3031,5.3085,5.3094,5.3182,5.3137,5.3258,5.3204,5.3245,5.3269,5.3274,5.3284,5.3233,5.3319,5.3468,5.3485,5.3293,5.3291,5.3289,0,5.2484,5.2616,5.272,5.2756,5.2845,5.2893,5.2931,5.2995,5.3044,5.3113,5.3145,5.3222,5.3264,5.3323,5.3352,5.3317,5.3471,5.3428,5.3489,5.3488,5.3521,5.3519,5.3679,5.3547,5.3547,5.3547,5.3546,0,5.2612,5.27,5.2755,5.2818,5.2916,5.2947,5.3042,5.308,5.3136,5.3206,5.3213,5.3278,5.3313,5.3382,5.3405,5.3501,5.352,5.3537,5.3542,5.3537,5.3535,5.3564,5.3557,5.3551,5.355,5.3549,5.3549,0,5.2713,5.2754,5.2867,5.2942,5.2963,5.3032,5.3096,5.3157,5.3189,5.3277,5.3299,5.3349,5.3431,5.3466,5.3566,5.3581,5.3692,5.3691,5.367,5.3672,5.373,5.3724,5.3915,5.3941,5.3792,5.3794,5.3795,0,5.2793,5.2861,5.2944,5.2993,5.3034,5.3111,5.3161,5.3193,5.3245,5.3326,5.3376,5.3459,5.3527,5.3657,5.3701,5.3777,5.3778,5.384,5.3789,5.3782,5.3779,5.3774,5.3781,5.3849,5.385,5.3851,5.3852,0,5.2929,5.2946,5.302,5.3101,5.3161,5.3226,5.3289,5.3327,5.3369,5.3426,5.3511,5.3564,5.3667,5.3748,5.3827,5.3865,5.3865,5.3868,5.3886,5.3881,5.3866,5.3875,5.3695,5.3863,5.3862,5.3861,5.3861,5.386,5.3022,5.3083,5.3151,5.3233,5.3284,5.3343,5.3404,5.3445,5.3517,5.3605,5.3618,5.3709,5.3772,5.3879,5.392,5.3989,5.3974,5.4,5.4006,5.4012,5.4016,5.3855,5.4004,5.4003,5.4003,5.4003,5.4003,0,5.3159,5.3203,5.3278,5.3367,5.3431,5.3428,5.3497,5.3551,5.3631,5.3691,5.3758,5.3855,5.3934,5.3985,5.4064,5.411,5.4112,5.4129,5.4126,5.4135,5.4026,5.4002,5.4126,5.4126,5.4126,5.4126,5.4126,5.4126,5.3237,5.334,5.3365,5.3492,5.3535,5.3626,5.3666,5.3719,5.3768,5.3877,5.3943,5.3976,5.4032,5.4115,5.4187,5.42,5.4228,5.4247,5.4258,5.4155,5.4142,5.413,5.4108,5.4253,5.4253,5.4362,5.4363,5.4363]}]]